Change the Weather History Date:

Tuesday, May 21, 2013

  Actual Average Record
Temperature  
Mean Temperature 76 °F 72 °F  
Max Temperature 82 °F 82 °F 94 °F (1933)
Min Temperature 69 °F 62 °F 44 °F (2002)
Degree Days  
Heating Degree Days 0 0  
Month to date heating degree days 27 25  
Since 1 July heating degree days 2440 2407  
Cooling Degree Days 11 7  
Month to date cooling degree days 110 110  
Year to date cooling degree days 172 198  
Growing Degree Days 26 (Base 50)    
Moisture  
Dew Point 67 °F    
Average Humidity 80    
Maximum Humidity 97    
Minimum Humidity 62    
Precipitation  
Precipitation 0.00 in 0.16 in 4.34 in (1963)
Month to date precipitation 0.70 2.84  
Year to date precipitation 16.11 17.25  
Sea Level Pressure  
Sea Level Pressure 30.05 in    
Wind  
Wind Speed 7 mph (South)    
Max Wind Speed 15 mph    
Max Gust Speed 21 mph    
Visibility 10 miles    
Events      
T = Trace of Precipitation, MM = Missing Value Source: NWS Daily Summary

Daily Weather History Graph

Daily Weather History Graph

Search for Another Location

Airport or City:

Trip Planner

Search our weather history database for the weather conditions in past years. The results will help you decide how hot, cold, wet, or windy it might be!

Date:

Astronomy

May. 21, 2013 Rise Set
Actual Time 6:05 AM EDT 8:11 PM EDT
Civil Twilight 5:37 AM EDT 8:39 PM EDT
Nautical Twilight 5:03 AM EDT 9:14 PM EDT
Astronomical Twilight 4:26 AM EDT 9:51 PM EDT
Moon 4:31 PM EDT (5/21) 3:22 AM EDT (5/21)
Length of Visible Light 15h 02m
Length of Day
14h 05m
Waxing Gibbous, 84% of the Moon is Illuminated
May 21
Waxing Gibbous
May 25
Full
May 31
Last Quarter
Jun 8
New
Jun 16
First Quarter

Hourly Weather History & Observations

Time (EDT) Temp. Heat Index Dew Point Humidity Pressure Visibility Wind Dir Wind Speed Gust Speed Precip Events Conditions
12:53 AM 70.0 °F - 68.0 °F 93% 30.07 in 10.0 mi South 4.6 mph - N/A   Scattered Clouds
1:53 AM 69.1 °F - 66.9 °F 93% 30.05 in 10.0 mi SSE 3.5 mph - N/A   Partly Cloudy
2:53 AM 70.0 °F - 68.0 °F 93% 30.04 in 9.0 mi Calm Calm - N/A   Overcast
3:53 AM 71.1 °F - 69.1 °F 93% 30.04 in 10.0 mi Calm Calm - N/A   Overcast
4:53 AM 71.1 °F - 69.1 °F 93% 30.04 in 10.0 mi Calm Calm - N/A   Overcast
5:53 AM 71.1 °F - 69.1 °F 93% 30.06 in 10.0 mi SSE 3.5 mph - N/A   Overcast
6:53 AM 71.1 °F - 69.1 °F 93% 30.07 in 10.0 mi Calm Calm - N/A   Mostly Cloudy
7:53 AM 75.0 °F - 68.0 °F 79% 30.08 in 10.0 mi SSW 8.1 mph - N/A   Overcast
8:53 AM 75.0 °F - 66.9 °F 76% 30.09 in 10.0 mi SSW 10.4 mph - N/A   Overcast
9:53 AM 75.0 °F - 68.0 °F 79% 30.09 in 10.0 mi South 9.2 mph - N/A   Overcast
10:53 AM 75.0 °F - 66.9 °F 76% 30.09 in 10.0 mi SSW 8.1 mph - N/A   Mostly Cloudy
11:53 AM 79.0 °F - 66.0 °F 64% 30.09 in 10.0 mi SSW 11.5 mph - N/A   Clear
12:53 PM 78.1 °F - 69.1 °F 74% 30.07 in 10.0 mi South 6.9 mph - N/A   Scattered Clouds
1:01 PM 78.8 °F - 69.8 °F 74% 30.07 in 10.0 mi SSE 8.1 mph - N/A   Mostly Cloudy
1:53 PM 82.0 °F 84.9 °F 68.0 °F 62% 30.05 in 10.0 mi South 15.0 mph - N/A   Mostly Cloudy
2:53 PM 81.0 °F 83.8 °F 68.0 °F 65% 30.04 in 10.0 mi South 12.7 mph 20.7 mph N/A   Partly Cloudy
3:53 PM 81.0 °F 83.0 °F 66.0 °F 60% 30.01 in 10.0 mi South 9.2 mph - N/A   Partly Cloudy
4:53 PM 79.0 °F - 64.9 °F 62% 30.02 in 10.0 mi South 10.4 mph - N/A   Partly Cloudy
5:53 PM 79.0 °F - 64.9 °F 62% 30.01 in 10.0 mi SW 9.2 mph - N/A   Clear
6:53 PM 75.9 °F - 64.9 °F 69% 30.03 in 10.0 mi SW 9.2 mph - N/A   Partly Cloudy
7:53 PM 73.9 °F - 66.0 °F 76% 30.01 in 10.0 mi South 10.4 mph - N/A   Clear
8:53 PM 72.0 °F - 66.0 °F 81% 30.01 in 10.0 mi South 9.2 mph - N/A   Clear
9:53 PM 71.1 °F - 66.9 °F 87% 30.03 in 10.0 mi South 5.8 mph - N/A   Clear
10:53 PM 70.0 °F - 66.9 °F 90% 30.04 in 10.0 mi Calm Calm - N/A   Clear
11:53 PM 69.1 °F - 66.0 °F 90% 30.04 in 10.0 mi South 5.8 mph - N/A   Clear